Find Starlink 34889

NORAD ID: 65761 Int'l Des: 2025-216 Owner: SPXS Country: US Constellation: starlink operational
LEOCIRCULAR

实时位置

正在加载3D地球...

关于 Starlink 34889

正在加载描述...

即将过境

Passes for default location (London). Set your location on the main map for personalized predictions.

高度历史

Loading altitude history...

两行轨道根数

1 65761U 25216AD 26106.85114822 .00005962 00000-0 21327-3 0 9997
2 65761 53.1591 155.8161 0000902 64.1843 295.9251 15.30197498 32437
Epoch: Apr 16, 2026 • Age: 11 hours

当前状态

高度 494.3 km
速度 7.62 km/s
星下点 -53.29°S, 115.15°E
发射日期 Sep 25, 2025
运行时间 0.5 years
类型 internet

技术详情

分类 Payload
质量 575.00 kg
干质量 530.00 kg
总质量 575.00 kg
长度 0.30 m
直径 4.10 m
跨度 29.00 m
形状 Box + pan
制造商 SPXS
平台类型 Starlink V2MO
阶段状态 In Orbit
所有者/国家 SPXS/US

Most Searched